Location: B?dargowo
(53.3916°N, 14.4413°E)
Time: 03:45:42
(UTC+00:00)

IRS-1C Rocket - Pass Details

Date: 05 February 2023
Orbit: 801 x 805 km, 98.9° (Epoch: 24 March)

Event Time Altitude Azimuth Distance (km) Brightness Sun altitude
Exits shadow 18:44:44 74° 59° (ENE) 839 3.9 -25.8°
Drops below altitude 10° 18:49:54 10° 347° (NNW) 2,391 6.8 -26.5°
Sets 18:52:15 0° 345° (NNW) 3,326 7.6 -26.9°
